DL9GJ-4 Weather Reports


time (UTC)temp
C
wind
direction
speed
KPH
gust
KPH
rain 1hr
cm
rain 24hr
cm
rain mn
cm
humidity
%
barometer
mb
20260509060710 10 320 0.0 0.0 0.00 0.00 0.00 52 1015.0
20260509060701 10 320 0.0 0.0 0.00 0.00 0.00 52 1015.0
20260509055501 10 319 0.0 0.0 0.00 0.00 0.00 49 1015.0
20260509054858 10 320 0.0 0.0 0.00 0.00 0.00 49 1015.0
20260509053659 10 319 0.0 0.0 0.00 0.00 0.00 49 1015.0
20260509053652 10 319 0.0 0.0 0.00 0.00 0.00 49 1015.0
20260509052445 9 319 0.0 0.0 0.00 0.00 0.00 48 1015.0
20260509051843 9 320 0.0 0.0 0.00 0.00 0.00 48 1015.0
20260509051316 9 319 0.0 0.0 0.00 0.00 0.00 48 1015.0
20260509051245 9 319 0.0 0.0 0.00 0.00 0.00 48 1015.0
20260509051238 9 319 0.0 0.0 0.00 0.00 0.00 48 1015.0
20260509050644 9 319 0.0 0.0 0.00 0.00 0.00 47 1015.0
20260509050637 9 319 0.0 0.0 0.00 0.00 0.00 47 1015.0
20260509050041 9 319 0.0 0.0 0.00 0.00 0.00 47 1015.0
20260509050036 9 319 0.0 0.0 0.00 0.00 0.00 47 1015.0
20260509044237 9 319 0.0 0.0 0.00 0.00 0.00 47 1015.0
20260509044228 9 319 0.0 0.0 0.00 0.00 0.00 47 1015.0
20260509043624 9 320 0.0 0.0 0.00 0.00 0.00 46 1015.0
20260509043030 9 320 0.0 0.0 0.00 0.00 0.00 46 1015.0
20260509043023 9 320 0.0 0.0 0.00 0.00 0.00 46 1015.0
20260509041816 9 319 0.0 0.0 0.00 0.00 0.00 46 1015.0
20260509041213 9 319 0.0 0.0 0.00 0.00 0.00 45 1015.0
20260509040614 9 319 0.0 0.0 0.00 0.00 0.00 45 1014.0
20260509040009 9 319 0.0 0.0 0.00 0.00 0.00 44 1014.0
20260509034810 9 319 0.0 0.0 0.00 0.00 0.00 43 1015.0
20260509034801 9 319 0.0 0.0 0.00 0.00 0.00 43 1015.0
20260509034319 9 319 0.0 0.0 0.00 0.00 0.00 43 1015.0
20260509034207 9 319 0.0 0.0 0.00 0.00 0.00 43 1015.0
20260509034159 9 319 0.0 0.0 0.00 0.00 0.00 43 1015.0
20260509033554 9 320 0.0 0.0 0.00 0.00 0.00 43 1014.0
20260509032953 9 319 0.0 3.2 0.00 0.00 0.00 43 1014.0
20260509031754 9 319 0.0 0.0 0.00 0.00 0.00 42 1014.0
20260509031748 9 319 0.0 0.0 0.00 0.00 0.00 42 1014.0
20260509031144 10 318 0.0 0.0 0.00 0.00 0.00 42 1014.0
20260509030549 10 318 0.0 0.0 0.00 0.00 0.00 42 1014.0
20260509030541 10 318 0.0 0.0 0.00 0.00 0.00 42 1014.0
20260509025939 10 319 0.0 0.0 0.00 0.00 0.00 42 1014.0
20260509025339 10 319 0.0 0.0 0.00 0.00 0.00 41 1014.0
20260509024137 10 318 0.0 0.0 0.00 0.00 0.00 41 1014.0
20260509023533 10 318 0.0 0.0 0.00 0.00 0.00 41 1014.0
20260509022933 10 319 0.0 0.0 0.00 0.00 0.00 40 1014.0
20260509022355 10 319 0.0 0.0 0.00 0.00 0.00 40 1014.0
20260509022333 10 319 0.0 0.0 0.00 0.00 0.00 40 1014.0
20260509021733 10 319 0.0 0.0 0.00 0.00 0.00 39 1014.0
20260509021133 10 318 0.0 0.0 0.00 0.00 0.00 39 1014.0
20260509020535 10 318 0.0 0.0 0.00 0.00 0.00 40 1014.0
20260509015334 10 305 0.0 0.0 0.00 0.00 0.00 40 1014.0
20260509014132 11 306 0.0 4.8 0.00 0.00 0.00 41 1014.0
20260509013532 11 193 4.8 8.0 0.00 0.00 0.00 42 1014.0
20260509011727 11 212 3.2 4.8 0.00 0.00 0.00 36 1014.0
20260509011136 12 204 4.8 4.8 0.00 0.00 0.00 35 1014.0
20260509011128 12 204 4.8 4.8 0.00 0.00 0.00 35 1014.0
20260509005936 12 175 0.0 0.0 0.00 0.00 0.00 34 1014.0
20260509005919 12 175 0.0 0.0 0.00 0.00 0.00 34 1014.0
20260509004715 12 183 4.8 4.8 0.00 0.00 0.00 35 1014.0
20260509003512 12 154 4.8 6.4 0.00 0.00 0.00 35 1014.0
20260509002912 12 191 4.8 4.8 0.00 0.00 0.00 35 1014.0
20260509001720 12 192 4.8 4.8 0.00 0.00 0.00 36 1014.0
20260509001713 12 192 4.8 4.8 0.00 0.00 0.00 36 1014.0
20260509001112 11 147 4.8 4.8 0.00 0.00 0.00 36 1014.0
20260509000512 11 170 3.2 3.2 0.00 0.00 0.00 36 1014.0
20260508235320 11 171 0.0 0.0 0.00 0.00 0.00 30 1015.0
20260508235312 11 171 0.0 0.0 0.00 0.00 0.00 30 1015.0
20260508234712 11 171 0.0 0.0 0.00 0.00 0.00 30 1015.0
20260508234118 11 171 0.0 0.0 0.00 0.00 0.00 30 1015.0
20260508234113 11 171 0.0 0.0 0.00 0.00 0.00 30 1015.0
20260508233519 12 172 0.0 0.0 0.00 0.00 0.00 30 1015.0
20260508233512 12 172 0.0 0.0 0.00 0.00 0.00 30 1015.0
20260508232913 12 171 0.0 0.0 0.00 0.00 0.00 30 1015.0
20260508232319 12 172 0.0 0.0 0.00 0.00 0.00 30 1015.0
20260508232312 12 172 0.0 0.0 0.00 0.00 0.00 30 1015.0
20260508231713 12 171 0.0 0.0 0.00 0.00 0.00 30 1015.0
20260508231112 12 171 0.0 8.0 0.00 0.00 0.00 31 1015.0
20260508230513 12 174 8.0 8.0 0.00 0.00 0.00 32 1015.0
20260508224713 12 101 0.0 4.8 0.00 0.00 0.00 32 1015.0
20260508224122 12 184 6.4 6.4 0.00 0.00 0.00 33 1015.0
20260508224112 12 184 6.4 6.4 0.00 0.00 0.00 33 1015.0
20260508223511 12 45 3.2 4.8 0.00 0.00 0.00 32 1014.0
20260508222919 12 33 4.8 4.8 0.00 0.00 0.00 29 1014.0
20260508222912 12 33 4.8 4.8 0.00 0.00 0.00 29 1014.0
20260508221710 13 34 3.2 6.4 0.00 0.00 0.00 27 1014.0
20260508214109 13 30 8.0 11.3 0.00 0.28 0.00 26 1014.0
20260508213505 13 46 11.3 11.3 0.00 0.28 0.00 27 1014.0
20260508212902 13 55 11.3 11.3 0.00 0.28 0.00 26 1014.0
20260508211657 13 59 11.3 11.3 0.00 0.28 0.00 26 1013.0
20260508211057 13 40 8.0 11.3 0.00 0.28 0.00 26 1013.0
20260508211049 13 40 8.0 11.3 0.00 0.28 0.00 26 1013.0
20260508205241 13 45 11.3 11.3 0.00 0.28 0.00 26 1013.0
20260508204645 13 59 6.4 9.7 0.00 0.28 0.00 27 1013.0
20260508204636 13 59 6.4 9.7 0.00 0.28 0.00 27 1013.0
20260508202829 13 41 8.0 9.7 0.00 0.28 0.00 29 1013.0
20260508202228 12 37 9.7 9.7 0.00 0.28 0.00 30 1013.0
20260508201627 12 47 8.0 8.0 0.00 0.28 0.00 30 1013.0
20260508201026 12 51 4.8 8.0 0.00 0.28 0.00 30 1013.0
20260508195827 11 53 6.4 6.4 0.00 0.28 0.00 30 1013.0
20260508195234 11 58 6.4 6.4 0.00 0.28 0.00 29 1013.0
20260508195225 11 58 6.4 6.4 0.00 0.28 0.00 29 1013.0
20260508194631 10 44 3.2 4.8 0.00 0.28 0.00 27 1013.0
20260508194625 10 44 3.2 4.8 0.00 0.28 0.00 27 1013.0
20260508194025 11 45 4.8 4.8 0.00 0.28 0.00 27 1013.0
20260508192825 11 44 3.2 3.2 0.00 0.28 0.00 26 1013.0
20260508192236 11 44 4.8 4.8 0.00 0.28 0.00 26 1013.0
20260508192225 11 44 4.8 4.8 0.00 0.28 0.00 26 1013.0
20260508191627 11 45 3.2 4.8 0.00 0.28 0.00 25 1013.0
20260508191031 11 44 3.2 4.8 0.00 0.28 0.00 23 1013.0
20260508191024 11 44 3.2 4.8 0.00 0.28 0.00 23 1013.0
20260508185836 12 44 3.2 4.8 0.00 0.28 0.00 20 1013.0
20260508185824 12 44 3.2 4.8 0.00 0.28 0.00 20 1013.0
20260508185226 13 44 3.2 4.8 0.00 0.28 0.00 19 1012.0
20260508184624 13 45 0.0 3.2 0.00 0.28 0.00 19 1012.0
20260508184024 14 44 3.2 4.8 0.00 0.28 0.00 19 1012.0
20260508182223 15 44 4.8 6.4 0.00 0.28 0.00 16 1012.0
20260508181624 15 42 4.8 6.4 0.00 0.28 0.00 16 1012.0
20260508181023 15 45 4.8 4.8 0.00 0.28 0.00 16 1012.0
20260508175508 16 34 6.4 8.0 0.00 0.28 0.00 16 1012.0
20260508175218 16 34 6.4 8.0 0.00 0.28 0.00 16 1012.0
20260508174621 16 46 4.8 4.8 0.00 0.28 0.00 16 1012.0
20260508174616 16 46 4.8 4.8 0.00 0.28 0.00 16 1012.0
20260508171602 17 46 6.4 6.4 0.00 0.28 0.00 15 1012.0
20260508171003 17 54 4.8 6.4 0.00 0.28 0.00 15 1012.0
20260508165155 18 48 9.7 9.7 0.00 0.28 0.00 15 1012.0
20260508164122 18 71 8.0 8.0 0.00 0.28 0.00 15 1012.0
20260508163955 18 71 8.0 8.0 0.00 0.28 0.00 15 1012.0
20260508162155 18 31 4.8 4.8 0.00 0.28 0.00 15 1012.0
20260508161553 18 2 3.2 3.2 0.00 0.28 0.00 15 1012.0
20260508160953 17 49 4.8 4.8 0.00 0.28 0.00 15 1012.0
20260508155753 18 40 4.8 4.8 0.00 0.28 0.00 15 1012.0
20260508155153 18 47 4.8 6.4 0.00 0.28 0.00 15 1012.0
20260508154553 18 36 6.4 8.0 0.00 0.28 0.00 15 1012.0
20260508153953 18 50 4.8 6.4 0.00 0.28 0.00 15 1012.0
20260508153349 18 50 6.4 6.4 0.00 0.28 0.00 15 1012.0
20260508152145 18 46 4.8 4.8 0.00 0.28 0.00 15 1012.0
20260508150945 20 322 3.2 4.8 0.00 0.28 0.00 15 1012.0
20260508150345 21 14 3.2 3.2 0.00 0.28 0.00 14 1012.0
20260508145747 21 265 3.2 3.2 0.00 0.28 0.00 14 1012.0
20260508143945 20 307 4.8 4.8 0.00 0.28 0.00 14 1012.0
20260508142745 20 99 4.8 4.8 0.00 0.28 0.00 14 1012.0
20260508140945 18 298 3.2 3.2 0.00 0.28 0.00 15 1012.0
20260508140347 18 298 0.0 3.2 0.00 0.28 0.00 15 1012.0
20260508135145 20 246 3.2 3.2 0.00 0.28 0.00 14 1012.0
20260508133350 20 343 4.8 4.8 0.00 0.28 0.00 14 1013.0
20260508133344 20 343 4.8 4.8 0.00 0.28 0.00 14 1013.0
20260508132741 20 222 4.8 4.8 0.00 0.28 0.00 17 1013.0
20260508132140 18 351 0.0 4.8 0.00 0.28 0.00 17 1013.0
20260508131536 18 337 0.0 3.2 0.00 0.28 0.00 15 1013.0
20260508125131 19 61 3.2 3.2 0.00 0.28 0.00 15 1013.0
20260508124529 20 62 0.0 8.0 0.00 0.28 0.00 15 1013.0
20260508123324 20 316 4.8 4.8 0.00 0.28 0.00 14 1013.0
20260508122115 20 15 3.2 4.8 0.00 0.28 0.00 17 1013.0
20260508121511 19 66 4.8 6.4 0.00 0.28 0.00 17 1013.0
20260508120308 20 1 0.0 3.2 0.00 0.28 0.00 17 1013.0
20260508114502 18 301 3.2 3.2 0.00 0.28 0.00 17 1010.0
20260508112659 18 198 4.8 4.8 0.00 0.28 0.00 23 1013.0
20260508112058 17 46 4.8 4.8 0.00 0.28 0.00 23 1013.0
20260508111501 17 42 3.2 6.4 0.00 0.28 0.00 25 1013.0
20260508110857 17 43 3.2 6.4 0.00 0.28 0.00 25 1013.0
20260508110257 16 2 3.2 3.2 0.00 0.28 0.00 24 1013.0
20260508103257 18 168 0.0 3.2 0.00 0.28 0.00 26 1014.0
20260508102102 17 192 4.8 4.8 0.00 0.28 0.00 25 1014.0
20260508102056 17 192 4.8 4.8 0.00 0.28 0.00 25 1014.0
20260508101456 16 328 0.0 4.8 0.00 0.28 0.00 27 1014.0
20260508100256 16 254 3.2 3.2 0.00 0.28 0.00 28 1014.0
20260508095657 16 324 0.0 4.8 0.00 0.28 0.00 27 1014.0
20260508095057 16 305 3.2 4.8 0.00 0.28 0.00 26 1014.0
20260508094458 16 286 3.2 3.2 0.00 0.28 0.00 29 1014.0
20260508093253 15 219 4.8 4.8 0.00 0.28 0.00 30 1014.0
20260508092659 15 19 3.2 3.2 0.00 0.28 0.00 32 1014.0
20260508092651 15 19 3.2 3.2 0.00 0.28 0.00 32 1014.0
20260508090241 15 39 3.2 4.8 0.00 0.28 0.00 33 1014.0
20260508085638 15 4 3.2 3.2 0.00 0.28 0.00 35 1014.0
20260508083829 15 297 3.2 3.2 0.00 0.28 0.00 35 1014.0
20260508082626 13 323 6.4 6.4 0.00 0.28 0.00 35 1014.0
20260508082026 14 60 3.2 3.2 0.00 0.28 0.00 41 1014.0
20260508080822 13 89 3.2 3.2 0.00 0.28 0.00 40 1014.0
20260508075009 12 89 3.2 3.2 0.00 0.28 0.00 56 1014.0
20260508074403 12 89 0.0 4.8 0.00 0.28 0.00 55 1014.0
20260508073200 12 89 0.0 3.2 0.00 0.28 0.00 66 1014.0
20260508071951 11 89 3.2 3.2 0.00 0.28 0.00 69 1014.0
20260508071349 11 89 0.0 3.2 0.00 0.28 0.00 68 1014.0
20260508070743 11 89 0.0 0.0 0.00 0.28 0.00 69 1014.0
20260508070142 10 89 3.2 3.2 0.00 0.28 0.00 68 1014.0
20260508065537 10 97 0.0 0.0 0.00 0.28 0.00 67 1014.0
20260508064329 10 97 3.2 3.2 0.00 0.28 0.00 68 1014.0
20260508063724 9 97 4.8 4.8 0.00 0.28 0.00 68 1014.0